Regional Weather Roundup
Issued by NWS

Home | Current Version | Previous Version | Text Only | Print | Product List | Glossary Off
Versions: 1 2 3 4 5 6 7 8 9 10 11 12 13 14 15 16 17 18 19 20 21 22 23 24 25 26 27 28 29 30 31 32 33 34 35 36 37 38 39 40 41 42 43 44 45 46 47 48 49 50

000
ASUS43 KIND 031109
RWRIN

WEATHER ROUNDUP FOR INDIANA
NATIONAL WEATHER SERVICE INDIANAPOLIS IN
700 AM EDT SUN MAY 03 2015

NOTE: "FAIR" INDICATES FEW OR NO CLOUDS BELOW 12,000 FEET WITH NO
SIGNIFICANT WEATHER AND/OR OBSTRUCTIONS TO VISIBILITY.

* - STATION DOES NOT REPORT WEATHER SUCH AS PRECIPITATION OR FOG.

+ - STATION NOT QUALITY CONTROLLED BY THE NATIONAL WEATHER SERVICE.
    USE DATA WITH CAUTION...ESPECIALLY DEWPOINT AND RELATIVE
    HUMIDITY OBSERVATIONS.

INZ001>003-010>013-019-020-031200-
NORTHWEST INDIANA

CITY           SKY/WX    TMP DP  RH WIND       PRES   REMARKS
GARY /AIRPORT/ MOCLDY    61 N/A N/A SW9       30.01R
KNOX *+        MOCLDY    50  28  43 S8        30.02R
LA PORTE +     MOCLDY    55  42  63 CALM      30.03R
MICHIGAN CITY+ MOCLDY    59  34  38 S10       30.02R
MONTICELLO +   PTCLDY    55  44  66 S5        30.04R
VALPARAISO     MOCLDY    54  41  61 S6        30.02S

$$

LMZ046-743>745-031200-
SOUTHERN LAKE MICHIGAN

STATION/POSITION TIME  TEMP    WIND        PRES    WAVE
                       AIR SEA DIR/SP/G            HT
                 (UTC) (F)     (DEG/KT/KT) (MB)    (FT)
BURNS HARBOR     1100   61     190/ 11/ 16 1016.3S
MICHIGAN CITY    1100   60     160/ 12/ 15   N/A
5NW MICH CITY    1100   56 50  200/  8/ 10   N/A     1

$$

INZ004-005-014>016-021>024-031200-
NORTH CENTRAL INDIANA

CITY           SKY/WX    TMP DP  RH WIND       PRES   REMARKS
GOSHEN         CLEAR     52  41  66 S6        30.04R
LOGANSPORT +   MOCLDY    50  41  71 S3        30.06R
PERU/GRISSOM   MOCLDY    53  44  73 S6        30.05R
ROCHESTER +    PTCLDY    57  43  58 S5        30.05R
SOUTH BEND     PTCLDY    54  39  57 S7        30.04R
WARSAW +       PTCLDY    48  41  76 CALM      30.05R

$$

INZ006>009-017-018-025>027-031200-
NORTHEAST INDIANA

CITY           SKY/WX    TMP DP  RH WIND       PRES   REMARKS
ANGOLA *+      CLEAR     46  43  87 CALM      30.04R
AUBURN +       PTCLDY    52  41  66 S5        30.05S
FORT WAYNE     MOCLDY    48  43  82 S5        30.06R
HUNTINGTON +   MOCLDY    53  44  72 CALM      30.06R

$$

INZ028-029-035-036-043>045-051>053-031200-
WEST CENTRAL INDIANA

CITY           SKY/WX    TMP DP  RH WIND       PRES   REMARKS
CRAWFORDSVL +  CLOUDY    54  42  66 S6        30.06S
GREENCASTLE +  CLOUDY    54  43  66 CALM      30.07R
LAFAYETTE      CLOUDY    54  45  71 SE3       30.04R
TERRE HAUTE    CLOUDY    57  49  74 CALM      30.06R

$$

INZ030>032-037>040-046>048-054>057-064-065-031200-
CENTRAL INDIANA

CITY           SKY/WX    TMP DP  RH WIND       PRES   REMARKS
CP ATTERBURY + CLOUDY    50  45  81 CALM      30.09R
FISHERS *+     CLOUDY    50  48  93 CALM      30.08R
FRANKFORT +    MOCLDY    51  46  84 CALM      30.07R
GREENWOOD *+   CLOUDY    55  46  71 CALM      30.08R
INDIANAPOLIS   CLOUDY    54  45  71 S5        30.06R
-EAGLE CREEK   MOCLDY    52  47  83 CALM      30.07R
MARION +       FAIR      50  42  73 S6        30.08R
MT COMFORT *+  CLOUDY    52  41  66 S6        30.08R
SHELBYVILLE    CLOUDY    53  46  77 SE5       30.08R
ZIONSVILLE +   MOCLDY    51  44  77 CALM      30.08R

$$

INZ033-034-041-042-049-050-058-059-031200-
EAST CENTRAL INDIANA

CITY           SKY/WX    TMP DP  RH WIND       PRES   REMARKS
MUNCIE         PTCLDY    55  43  63 S5        30.08R

$$

INZ060-061-067>069-081>083-085>088-031200-
SOUTHWEST INDIANA

CITY           SKY/WX    TMP DP  RH WIND       PRES   REMARKS
EVANSVILLE     MOCLDY    55  50  83 CALM      30.08S
HUNTINGBURG *+ MOCLDY    52  46  82 SE6       30.09S
WASHINGTON +   CLOUDY    56  48  73 S6        30.07R

$$

INZ062-063-066-070>080-084-089>092-031200-
SOUTH CENTRAL AND SOUTHEAST INDIANA

CITY           SKY/WX    TMP DP  RH WIND       PRES   REMARKS
BEDFORD +      CLOUDY    54  46  76 S5        30.09R
BLOOMINGTON    CLOUDY    53  48  83 CALM      30.08R
MADISON *+     MOCLDY    50  46  87 CALM      30.11S
NORTH VERNON + CLOUDY    48  48 100 CALM      30.10R
SEYMOUR +      CLOUDY    54  48  82 CALM      30.09R

$$




USA.gov is the U.S. government's official web portal to all federal, state and local government web resources and services.